GPS BIIF-6 (PRN 06)

Last updated on Mon Sep 07 2026 00:03:19 GMT+0000 (Coordinated Universal Time)

1 39741U 14026A 26249.23314435 -.00000078 00000+0 00000+0 0 9999 2 39741 56.4526 328.3604 0039118 324.2403 35.5504 2.00555019 90165
UTC large
Height (km)
Speed (km/s)
/
Latitude / Longitude
Inclination (degrees)
Orbital Period (minutes)
Azimuth
Elevation
Range (km)
Doppler Factor

Next 0 passes for location: London (51.5072 / 0.1276)

No passes found over London.
GPS BIIF-6 (PRN 06)